KD9CCP Weather Reports


Display with metric or nautical units.
time (UTC)temp
F
wind
direction
speed
MPH
gust
MPH
rain 1hr
in
rain 24hr
in
rain mn
in
humidity
%
barometer
mb
20260503055044 46 342 1.0 1.0 0.00 0.00 0.00 68 1010.4
20260503054539 47 342 0.0 0.0 0.00 0.00 0.00 69 1010.4
20260503054037 47 341 0.0 0.0 0.00 0.00 0.00 71 1010.4
20260503053535 47 340 0.0 0.0 0.00 0.00 0.00 66 1010.7
20260503053032 47 343 0.0 0.0 0.00 0.00 0.00 64 1010.6
20260503052529 47 342 0.0 0.0 0.00 0.00 0.00 73 1010.4
20260503052025 46 342 0.0 0.0 0.00 0.00 0.00 68 1010.5
20260503051521 46 342 0.0 0.0 0.00 0.00 0.00 72 1010.7
20260503051019 46 342 0.0 0.0 0.00 0.00 0.00 70 1010.6
20260503050514 46 342 0.0 0.0 0.00 0.00 0.00 71 1010.6
20260503050012 46 342 0.0 0.0 0.00 0.00 0.00 70 1010.7
20260503045509 46 342 0.0 0.0 0.00 0.00 0.00 69 1010.7
20260503045006 46 342 0.0 0.0 0.00 0.00 0.00 70 1010.9
20260503044503 46 342 0.0 0.0 0.00 0.00 0.00 69 1010.7
20260503044000 46 342 0.0 0.0 0.00 0.00 0.00 70 1010.9
20260503043456 46 342 0.0 0.0 0.00 0.00 0.00 72 1011.1
20260503042953 45 342 0.0 0.0 0.00 0.00 0.00 72 1011.0
20260503042450 45 342 0.0 0.0 0.00 0.00 0.00 73 1011.2
20260503041946 46 342 0.0 0.0 0.00 0.00 0.00 71 1011.2
20260503041443 46 342 0.0 0.0 0.00 0.00 0.00 69 1011.2
20260503040941 45 342 0.0 0.0 0.00 0.00 0.00 70 1011.3
20260503040438 45 342 0.0 0.0 0.00 0.00 0.00 71 1011.4
20260503035935 45 342 0.0 0.0 0.00 0.00 0.00 72 1011.5
20260503035432 45 342 0.0 0.0 0.00 0.00 0.00 71 1011.5
20260503034930 44 342 1.0 1.0 0.00 0.00 0.00 65 1011.4
20260503034427 44 343 1.0 1.0 0.00 0.00 0.00 70 1011.3
20260503033924 44 343 0.0 1.0 0.00 0.00 0.00 69 1011.6
20260503033421 44 342 1.0 1.0 0.00 0.00 0.00 71 1011.5
20260503032919 44 342 0.0 0.0 0.00 0.00 0.00 73 1011.9
20260503032418 44 342 0.0 0.0 0.00 0.00 0.00 72 1011.8
20260503031915 44 342 0.0 0.0 0.00 0.00 0.00 70 1011.9
20260503031412 44 342 0.0 0.0 0.00 0.00 0.00 70 1012.1
20260503030909 44 341 0.0 0.0 0.00 0.00 0.00 70 1012.1
20260503030405 45 341 0.0 0.0 0.00 0.00 0.00 68 1012.2
20260503025902 45 341 0.0 0.0 0.00 0.00 0.00 66 1012.2
20260503025359 45 342 0.0 0.0 0.00 0.00 0.00 65 1012.1
20260503024856 46 342 0.0 0.0 0.00 0.00 0.00 67 1012.4
20260503024353 46 341 0.0 0.0 0.00 0.00 0.00 65 1012.5
20260503023850 47 341 0.0 0.0 0.00 0.00 0.00 63 1012.7
20260503023347 47 341 1.0 1.0 0.00 0.00 0.00 59 1012.5
20260503022843 47 342 0.0 0.0 0.00 0.00 0.00 67 1012.5
20260503022338 47 342 0.0 0.0 0.00 0.00 0.00 66 1012.4
20260503021835 47 342 0.0 0.0 0.00 0.00 0.00 65 1012.8
20260503021331 48 342 0.0 0.0 0.00 0.00 0.00 65 1012.5
20260503020829 48 342 0.0 0.0 0.00 0.00 0.00 65 1012.8
20260503020327 48 342 0.0 0.0 0.00 0.00 0.00 63 1012.6
20260503015823 48 342 0.0 0.0 0.00 0.00 0.00 61 1012.6
20260503015320 48 342 0.0 0.0 0.00 0.00 0.00 64 1012.7
20260503014815 48 342 0.0 0.0 0.00 0.00 0.00 60 1012.6
20260503014313 49 342 0.0 0.0 0.00 0.00 0.00 62 1012.6
20260503013810 49 342 0.0 0.0 0.00 0.00 0.00 60 1012.5
20260503013308 49 342 0.0 0.0 0.00 0.00 0.00 61 1012.7
20260503012805 49 342 0.0 0.0 0.00 0.00 0.00 59 1012.5
20260503012305 50 342 0.0 0.0 0.00 0.00 0.00 57 1012.6
20260503011759 50 342 0.0 0.0 0.00 0.00 0.00 52 1012.6
20260503011255 50 342 0.0 0.0 0.00 0.00 0.00 49 1012.8
20260503010752 51 342 0.0 0.0 0.00 0.00 0.00 46 1012.5
20260503010249 51 342 0.0 0.0 0.00 0.00 0.00 47 1012.7
20260503005746 51 342 0.0 1.0 0.00 0.00 0.00 47 1012.6
20260503005244 52 342 0.0 1.0 0.00 0.00 0.00 43 1012.6
20260503004740 53 342 0.0 0.0 0.00 0.00 0.00 42 1012.8
20260503004238 53 342 1.0 1.0 0.00 0.00 0.00 43 1012.7
20260503003734 53 341 0.0 0.0 0.00 0.00 0.00 42 1012.8
20260503003232 53 344 0.0 0.0 0.00 0.00 0.00 41 1012.6
20260503002728 54 348 0.0 0.0 0.00 0.00 0.00 44 1012.8
20260503002225 54 338 0.0 1.0 0.00 0.00 0.00 40 1012.7
20260503001721 53 339 0.0 1.0 0.00 0.00 0.00 41 1012.8
20260503001218 54 339 0.0 0.0 0.00 0.00 0.00 41 1012.8
20260503000716 54 339 0.0 1.0 0.00 0.00 0.00 40 1012.6
20260503000213 54 338 1.0 1.0 0.00 0.00 0.00 40 1012.7
20260502235710 55 339 0.0 0.0 0.00 0.00 0.00 41 1012.8
20260502235208 54 338 1.0 1.0 0.00 0.00 0.00 41 1013.0
20260502234704 54 341 0.0 0.0 0.00 0.00 0.00 37 1012.7
20260502234201 55 344 0.0 0.0 0.00 0.00 0.00 38 1013.0
20260502233657 55 348 0.0 0.0 0.00 0.00 0.00 39 1013.2
20260502233154 55 311 2.0 2.0 0.00 0.00 0.00 38 1012.8
20260502232649 55 343 1.0 1.0 0.00 0.00 0.00 40 1013.1
20260502232147 56 305 3.0 3.0 0.00 0.00 0.00 39 1013.1
20260502231644 56 273 4.0 5.0 0.00 0.00 0.00 40 1013.0
20260502231141 56 350 0.0 0.0 0.00 0.00 0.00 37 1012.8
20260502230640 56 269 5.0 6.0 0.00 0.00 0.00 35 1013.1
20260502230138 56 304 5.0 6.0 0.00 0.00 0.00 36 1013.1
20260502225633 56 343 0.0 0.0 0.00 0.00 0.00 35 1013.1
20260502225131 56 307 4.0 6.0 0.00 0.00 0.00 39 1013.4
20260502224627 56 310 3.0 3.0 0.00 0.00 0.00 35 1013.3
20260502224124 56 256 4.0 5.0 0.00 0.00 0.00 37 1013.3
20260502223621 56 331 3.0 3.0 0.00 0.00 0.00 39 1013.3
20260502223120 56 334 1.0 2.0 0.00 0.00 0.00 35 1013.3
20260502222617 56 295 1.0 2.0 0.00 0.00 0.00 38 1013.2
20260502222113 56 340 1.0 2.0 0.00 0.00 0.00 38 1013.5
20260502221609 55 307 3.0 3.0 0.00 0.00 0.00 40 1013.7
20260502221106 55 286 5.0 6.0 0.00 0.00 0.00 41 1013.7
20260502220602 55 288 6.0 8.0 0.00 0.00 0.00 37 1013.5
20260502220058 56 292 4.0 5.0 0.00 0.00 0.00 43 1013.7
20260502215556 55 307 6.0 9.0 0.00 0.00 0.00 41 1013.5
20260502215052 55 277 3.0 3.0 0.00 0.00 0.00 39 1013.8
20260502214549 55 356 0.0 0.0 0.00 0.00 0.00 40 1013.7
20260502214047 55 356 0.0 1.0 0.00 0.00 0.00 37 1013.7
20260502213544 55 348 0.0 1.0 0.00 0.00 0.00 43 1013.8
20260502213042 55 353 1.0 1.0 0.00 0.00 0.00 42 1013.8
20260502212540 55 295 5.0 6.0 0.00 0.00 0.00 41 1013.9
20260502212037 55 295 5.0 6.0 0.00 0.00 0.00 41 1014.0
20260502211532 54 277 4.0 6.0 0.00 0.00 0.00 40 1014.2
20260502211030 55 300 5.0 7.0 0.00 0.00 0.00 40 1014.2
20260502210527 55 309 3.0 5.0 0.00 0.00 0.00 40 1014.2
20260502210024 54 289 4.0 5.0 0.00 0.00 0.00 41 1014.1
20260502205521 54 261 4.0 6.0 0.00 0.00 0.00 37 1014.1
20260502205018 54 332 3.0 5.0 0.00 0.00 0.00 37 1014.3
20260502204515 54 247 5.0 8.0 0.00 0.00 0.00 41 1014.6
20260502204013 54 266 3.0 5.0 0.00 0.00 0.00 37 1014.3
20260502203509 54 295 3.0 5.0 0.00 0.00 0.00 39 1014.4
20260502203006 53 252 5.0 8.0 0.00 0.00 0.00 39 1014.5
20260502202502 54 302 3.0 3.0 0.00 0.00 0.00 38 1014.7
20260502202001 53 321 3.0 5.0 0.00 0.00 0.00 42 1014.7
20260502201456 54 325 3.0 3.0 0.00 0.00 0.00 42 1015.0
20260502200953 53 264 5.0 7.0 0.00 0.00 0.00 44 1014.9
20260502200449 53 318 6.0 7.0 0.00 0.00 0.00 40 1014.8
20260502195947 53 320 4.0 5.0 0.00 0.00 0.00 40 1015.0
20260502195444 53 68 2.0 2.0 0.00 0.00 0.00 40 1015.3
20260502194940 53 338 1.0 1.0 0.00 0.00 0.00 42 1015.3
20260502194437 54 272 4.0 5.0 0.00 0.00 0.00 42 1015.3
20260502193933 54 344 1.0 1.0 0.00 0.00 0.00 37 1015.5
20260502193430 53 337 2.0 2.0 0.00 0.00 0.00 38 1015.5
20260502192926 53 258 5.0 7.0 0.00 0.00 0.00 42 1015.9
20260502192423 54 330 2.0 2.0 0.00 0.00 0.00 42 1015.8
20260502191920 53 6 1.0 2.0 0.00 0.00 0.00 40 1015.9
20260502191418 53 334 3.0 3.0 0.00 0.00 0.00 39 1015.8
20260502190915 53 335 1.0 1.0 0.00 0.00 0.00 43 1015.9
20260502190412 52 342 3.0 3.0 0.00 0.00 0.00 44 1016.1
20260502185908 52 335 4.0 5.0 0.00 0.00 0.00 43 1016.4
20260502185404 52 316 2.0 2.0 0.00 0.00 0.00 42 1016.1
20260502184901 52 340 0.0 1.0 0.00 0.00 0.00 42 1016.1
20260502184356 52 339 3.0 5.0 0.00 0.00 0.00 41 1016.3
20260502183853 52 339 3.0 5.0 0.00 0.00 0.00 41 1016.3
20260502183349 51 307 2.0 3.0 0.00 0.00 0.00 46 1016.5
20260502182844 51 251 5.0 7.0 0.00 0.00 0.00 45 1016.3
20260502182340 51 282 5.0 7.0 0.00 0.00 0.00 42 1016.4
20260502181837 51 262 5.0 6.0 0.00 0.00 0.00 46 1016.5
20260502181336 51 333 2.0 3.0 0.00 0.00 0.00 44 1016.5
20260502180833 51 321 4.0 5.0 0.00 0.00 0.00 40 1016.8
20260502180330 51 342 1.0 1.0 0.00 0.00 0.00 39 1016.5
20260502170249 51 312 2.0 2.0 0.00 0.00 0.00 40 1017.5
20260502164237 50 331 1.0 1.0 0.00 0.00 0.00 46 1017.8
20260502163732 49 307 3.0 5.0 0.00 0.00 0.00 48 1017.8
20260502163229 49 299 2.0 3.0 0.00 0.00 0.00 46 1017.8
20260502162726 49 319 3.0 5.0 0.00 0.00 0.00 51 1017.8
20260502162223 48 345 0.0 1.0 0.00 0.00 0.00 48 1018.1
20260502161720 49 297 2.0 2.0 0.00 0.00 0.00 49 1018.0
20260502161216 48 333 2.0 2.0 0.00 0.00 0.00 46 1018.0
20260502160715 48 295 4.0 6.0 0.00 0.00 0.00 48 1018.2
20260502160213 49 320 3.0 5.0 0.00 0.00 0.00 48 1018.1
20260502152132 47 341 1.0 1.0 0.00 0.00 0.00 52 1018.4
20260502151630 46 300 1.0 2.0 0.00 0.00 0.00 56 1018.5
20260502151127 46 259 5.0 6.0 0.00 0.00 0.00 54 1018.5
20260502150624 46 334 1.0 2.0 0.00 0.00 0.00 52 1018.5
20260502150120 46 342 3.0 5.0 0.00 0.00 0.00 50 1018.7
20260502130509 34 339 1.0 1.0 0.00 0.00 0.00 77 1019.6
20260502123452 29 352 0.0 0.0 0.00 0.00 0.00 96 1019.7
20260502122949 28 352 0.0 0.0 0.00 0.00 0.00 96 1019.9
20260502122445 27 352 0.0 0.0 0.00 0.00 0.00 96 1019.8
20260502121943 27 352 0.0 0.0 0.00 0.00 0.00 96 1019.8
20260502121440 27 352 0.0 0.0 0.00 0.00 0.00 97 1019.8
20260502120938 26 352 0.0 0.0 0.00 0.00 0.00 97 1019.8
20260502120433 26 352 0.0 0.0 0.00 0.00 0.00 97 1019.8
20260502115931 26 352 0.0 0.0 0.00 0.00 0.00 97 1019.6
20260502115428 25 352 0.0 0.0 0.00 0.00 0.00 97 1019.6
20260502114924 25 352 0.0 0.0 0.00 0.00 0.00 97 1019.7
20260502114421 25 352 0.0 1.0 0.00 0.00 0.00 97 1019.9
20260502113918 26 352 0.0 0.0 0.00 0.00 0.00 97 1020.0
20260502113416 24 352 0.0 0.0 0.00 0.00 0.00 97 1019.8
20260502112914 24 352 0.0 0.0 0.00 0.00 0.00 97 1019.9
20260502112411 24 352 0.0 0.0 0.00 0.00 0.00 97 1019.9
20260502111909 23 352 0.0 0.0 0.00 0.00 0.00 96 1019.8
20260502111406 23 352 0.0 0.0 0.00 0.00 0.00 96 1019.7
20260502110903 23 352 0.0 0.0 0.00 0.00 0.00 96 1019.6
20260502110401 23 352 0.0 0.0 0.00 0.00 0.00 96 1019.6
20260502105858 23 352 0.0 0.0 0.00 0.00 0.00 96 1019.6
20260502105355 23 352 0.0 0.0 0.00 0.00 0.00 96 1019.7
20260502104853 24 352 0.0 0.0 0.00 0.00 0.00 96 1019.8
20260502104350 24 352 0.0 0.0 0.00 0.00 0.00 96 1019.6
20260502103847 24 352 0.0 0.0 0.00 0.00 0.00 96 1019.7
20260502103344 24 351 0.0 0.0 0.00 0.00 0.00 96 1019.7
20260502102841 24 351 0.0 0.0 0.00 0.00 0.00 96 1019.6
20260502102338 24 351 0.0 0.0 0.00 0.00 0.00 96 1019.5
20260502101836 24 351 0.0 0.0 0.00 0.00 0.00 96 1019.7
20260502101334 24 351 0.0 0.0 0.00 0.00 0.00 96 1019.7
20260502100832 24 351 0.0 0.0 0.00 0.00 0.00 96 1019.7
20260502100331 24 351 0.0 0.0 0.00 0.00 0.00 97 1019.7
20260502091304 26 351 0.0 1.0 0.00 0.00 0.00 98 1019.9
20260502090802 26 352 0.0 1.0 0.00 0.00 0.00 97 1020.0
20260502090258 24 353 0.0 0.0 0.00 0.00 0.00 95 1019.7
20260502071153 26 351 1.0 1.0 0.00 0.00 0.00 92 1019.7
20260502070651 26 351 1.0 1.0 0.00 0.00 0.00 91 1019.9
20260502070149 26 351 1.0 1.0 0.00 0.00 0.00 91 1019.8
20260502065647 26 349 1.0 1.0 0.00 0.00 0.00 91 1020.0
20260502065144 26 349 0.0 0.0 0.00 0.00 0.00 91 1020.0
20260502064643 26 349 0.0 1.0 0.00 0.00 0.00 91 1019.9
20260502064140 26 349 1.0 1.0 0.00 0.00 0.00 91 1019.9
20260502063637 26 349 1.0 1.0 0.00 0.00 0.00 90 1020.1
20260502063135 26 348 1.0 1.0 0.00 0.00 0.00 90 1020.1
20260502062632 26 349 1.0 1.0 0.00 0.00 0.00 90 1020.1
20260502062130 26 350 1.0 1.0 0.00 0.00 0.00 90 1020.1
20260502061628 26 350 1.0 1.0 0.00 0.00 0.00 90 1020.2
20260502061125 26 350 1.0 1.0 0.00 0.00 0.00 89 1020.2
20260502060625 26 349 1.0 1.0 0.00 0.00 0.00 89 1020.2